GFSFLT1_prec_precacc6_093.txt.gz
Total_Precipitation_Accumulation
0.00 0.00 0.00 0.00 0.00 0.00 0.00 0.01 0.01 0.07 0.14 0.17 0.17 0.03 0.00 0.00 0.00 0.00 0.00 0.00 0.00 0.00 0.00 0.00 0.02 0.05 0.04 0.01 0.03 0.03 0.03 0.11
0.00 0.00 0.00 0.00 0.00 0.00 0.00 0.01 0.02 0.05 0.05 0.06 0.05 0.00 0.01 0.02 0.00 0.00 0.00 0.00 0.00 0.00 0.00 0.00 0.01 0.04 0.08 0.05 0.04 0.03 0.04 0.23
0.00 0.00 0.00 0.00 0.00 0.00 0.00 0.00 0.00 0.01 0.02 0.05 0.06 0.10 0.10 0.08 0.02 0.00 0.00 0.00 0.00 0.01 0.01 0.02 0.03 0.05 0.02 0.03 0.04 0.02 0.08 0.24
0.00 0.00 0.00 0.00 0.00 0.00 0.00 0.00 0.00 0.01 0.01 0.03 0.06 0.10 0.07 0.12 0.02 0.00 0.00 0.00 0.00 0.00 0.01 0.02 0.04 0.07 0.06 0.04 0.04 0.02 0.08 0.16
0.00 0.00 0.00 0.00 0.00 0.00 0.00 0.00 0.00 0.01 0.02 0.02 0.02 0.01 0.00 0.00 0.00 0.00 0.00 0.00 0.00 0.01 0.01 0.02 0.02 0.03 0.05 0.05 0.06 0.06 0.06 0.09
0.00 0.00 0.00 0.00 0.00 0.00 0.00 0.00 0.00 0.01 0.03 0.02 0.03 0.02 0.03 0.06 0.03 0.00 0.00 0.00 0.00 0.01 0.01 0.01 0.01 0.01 0.03 0.03 0.08 0.09 0.07 0.06
0.00 0.00 0.00 0.00 0.08 0.04 0.00 0.00 0.01 0.05 0.03 0.04 0.04 0.02 0.05 0.04 0.02 0.00 0.00 0.00 0.01 0.01 0.01 0.01 0.01 0.01 0.02 0.02 0.08 0.12 0.12 0.11
0.01 0.01 0.01 0.00 0.03 0.17 0.13 0.11 0.03 0.02 0.02 0.04 0.05 0.07 0.04 0.04 0.02 0.00 0.00 0.00 0.01 0.01 0.01 0.01 0.01 0.01 0.03 0.05 0.05 0.18 0.19 0.16
0.02 0.02 0.03 0.01 0.00 0.08 0.20 0.27 0.21 0.16 0.14 0.15 0.12 0.06 0.02 0.02 0.01 0.00 0.00 0.00 0.00 0.00 0.01 0.01 0.01 0.02 0.07 0.13 0.17 0.18 0.31 0.27
0.02 0.02 0.05 0.03 0.01 0.17 0.20 0.15 0.07 0.15 0.22 0.19 0.16 0.07 0.02 0.01 0.00 0.00 0.00 0.00 0.00 0.00 0.00 0.00 0.00 0.03 0.09 0.32 0.29 0.28 0.31 0.37
0.00 0.01 0.07 0.09 0.08 0.18 0.33 0.46 0.38 0.31 0.27 0.23 0.21 0.12 0.08 0.02 0.00 0.00 0.00 0.00 0.00 0.00 0.00 0.00 0.00 0.02 0.07 0.24 0.33 0.32 0.39 0.40
0.00 0.01 0.05 0.12 0.16 0.30 0.42 0.62 0.79 0.69 0.52 0.37 0.28 0.15 0.11 0.06 0.02 0.00 0.00 0.00 0.00 0.00 0.00 0.00 0.00 0.00 0.05 0.17 0.35 0.31 0.38 0.40
0.00 0.00 0.02 0.09 0.17 0.30 0.43 0.67 1.06 0.89 0.56 0.40 0.27 0.16 0.13 0.05 0.01 0.01 0.01 0.00 0.00 0.00 0.00 0.00 0.00 0.00 0.05 0.18 0.38 0.49 0.41 0.39
0.00 0.00 0.00 0.02 0.05 0.17 0.26 0.50 0.70 0.68 0.78 0.47 0.30 0.16 0.10 0.03 0.01 0.01 0.02 0.01 0.01 0.01 0.00 0.00 0.00 0.00 0.03 0.18 0.29 0.49 0.44 0.35
0.00 0.00 0.00 0.00 0.01 0.04 0.09 0.39 0.40 0.20 0.62 0.72 0.48 0.18 0.07 0.02 0.01 0.01 0.00 0.01 0.01 0.01 0.01 0.00 0.00 0.00 0.04 0.09 0.17 0.32 0.40 0.39
0.00 0.00 0.00 0.00 0.00 0.00 0.01 0.05 0.34 0.34 0.41 0.88 0.88 0.33 0.08 0.02 0.01 0.01 0.01 0.00 0.00 0.01 0.01 0.01 0.01 0.00 0.01 0.05 0.10 0.17 0.37 0.41
0.00 0.00 0.00 0.00 0.00 0.00 0.01 0.03 0.07 0.23 0.29 0.60 0.87 0.69 0.10 0.02 0.01 0.01 0.01 0.01 0.01 0.01 0.01 0.02 0.03 0.02 0.04 0.03 0.06 0.07 0.08 0.13
0.00 0.00 0.00 0.01 0.02 0.03 0.02 0.02 0.07 0.15 0.21 0.34 0.31 0.45 0.29 0.08 0.02 0.02 0.02 0.02 0.02 0.02 0.02 0.03 0.03 0.03 0.04 0.06 0.06 0.05 0.06 0.04
0.01 0.00 0.01 0.02 0.05 0.07 0.04 0.05 0.05 0.14 0.24 0.26 0.36 0.27 0.27 0.08 0.05 0.03 0.05 0.03 0.03 0.03 0.03 0.03 0.03 0.04 0.05 0.08 0.07 0.02 0.03 0.05

GFSFLT1_prec_precacc6_096.txt.gz
Total_Precipitation_Accumulation
0.00 0.00 0.00 0.00 0.00 0.00 0.00 0.00 0.00 0.01 0.08 0.11 0.11 0.07 0.06 0.03 0.02 0.00 0.00 0.00 0.00 0.00 0.00 0.00 0.01 0.01 0.01 0.01 0.01 0.01 0.01 0.03
0.00 0.00 0.00 0.00 0.00 0.00 0.00 0.00 0.00 0.00 0.03 0.02 0.04 0.01 0.01 0.04 0.03 0.05 0.01 0.00 0.00 0.00 0.00 0.00 0.01 0.00 0.01 0.01 0.02 0.02 0.02 0.04
0.00 0.00 0.00 0.00 0.00 0.00 0.00 0.00 0.00 0.00 0.00 0.02 0.06 0.09 0.11 0.15 0.15 0.17 0.08 0.01 0.00 0.00 0.01 0.01 0.01 0.01 0.01 0.02 0.04 0.02 0.02 0.02
0.00 0.00 0.00 0.00 0.00 0.00 0.00 0.00 0.00 0.00 0.00 0.00 0.05 0.12 0.16 0.28 0.29 0.24 0.15 0.05 0.01 0.00 0.01 0.02 0.01 0.01 0.02 0.03 0.06 0.06 0.03 0.04
0.00 0.00 0.00 0.00 0.00 0.00 0.00 0.00 0.00 0.00 0.00 0.00 0.02 0.01 0.00 0.00 0.04 0.15 0.17 0.10 0.04 0.02 0.01 0.02 0.02 0.01 0.03 0.06 0.08 0.11 0.10 0.05
0.00 0.00 0.00 0.00 0.00 0.00 0.00 0.00 0.00 0.00 0.00 0.00 0.03 0.02 0.03 0.06 0.04 0.03 0.05 0.01 0.02 0.02 0.02 0.02 0.02 0.01 0.02 0.05 0.06 0.06 0.07 0.07
0.00 0.00 0.00 0.00 0.00 0.00 0.00 0.00 0.00 0.00 0.00 0.03 0.04 0.02 0.05 0.04 0.02 0.02 0.00 0.00 0.01 0.01 0.01 0.01 0.01 0.01 0.01 0.02 0.06 0.05 0.05 0.07
0.00 0.01 0.01 0.00 0.00 0.01 0.02 0.03 0.01 0.00 0.00 0.02 0.05 0.07 0.05 0.05 0.02 0.01 0.00 0.00 0.00 0.00 0.01 0.01 0.02 0.01 0.02 0.03 0.03 0.04 0.05 0.10
0.00 0.02 0.03 0.01 0.01 0.04 0.10 0.08 0.13 0.12 0.12 0.13 0.14 0.15 0.14 0.13 0.09 0.04 0.01 0.00 0.00 0.00 0.01 0.01 0.01 0.02 0.03 0.03 0.04 0.03 0.09 0.15
0.03 0.05 0.06 0.04 0.03 0.06 0.13 0.12 0.08 0.12 0.23 0.19 0.19 0.17 0.18 0.17 0.16 0.14 0.04 0.00 0.00 0.00 0.00 0.01 0.01 0.02 0.03 0.05 0.09 0.10 0.13 0.19
0.02 0.02 0.05 0.05 0.05 0.11 0.22 0.21 0.22 0.21 0.24 0.28 0.28 0.23 0.19 0.17 0.13 0.07 0.03 0.00 0.00 0.00 0.00 0.01 0.01 0.01 0.02 0.04 0.13 0.19 0.29 0.29
0.00 0.00 0.02 0.05 0.06 0.10 0.14 0.30 0.50 0.43 0.31 0.41 0.42 0.24 0.21 0.16 0.16 0.10 0.06 0.01 0.00 0.00 0.00 0.00 0.00 0.00 0.00 0.03 0.13 0.16 0.30 0.40
0.00 0.00 0.00 0.06 0.11 0.09 0.12 0.18 0.37 0.37 0.35 0.37 0.33 0.22 0.20 0.14 0.12 0.07 0.02 0.00 0.00 0.00 0.00 0.00 0.00 0.00 0.00 0.04 0.18 0.30 0.31 0.31
0.00 0.00 0.00 0.01 0.08 0.13 0.13 0.17 0.39 0.34 0.47 0.45 0.46 0.31 0.19 0.10 0.06 0.02 0.00 0.00 0.01 0.01 0.00 0.00 0.00 0.00 0.00 0.02 0.11 0.29 0.43 0.42
0.00 0.00 0.00 0.00 0.02 0.07 0.11 0.35 0.37 0.17 0.43 0.64 0.56 0.49 0.34 0.11 0.03 0.00 0.00 0.00 0.00 0.01 0.01 0.01 0.00 0.00 0.02 0.05 0.07 0.18 0.32 0.44
0.00 0.00 0.00 0.00 0.00 0.00 0.02 0.06 0.31 0.31 0.31 0.75 1.01 0.71 0.51 0.40 0.08 0.01 0.01 0.00 0.00 0.00 0.00 0.00 0.00 0.00 0.01 0.04 0.11 0.15 0.23 0.29
0.00 0.00 0.00 0.00 0.00 0.00 0.01 0.01 0.03 0.18 0.27 0.62 1.02 1.52 0.73 0.58 0.41 0.03 0.01 0.00 0.00 0.00 0.00 0.01 0.01 0.00 0.02 0.02 0.05 0.08 0.09 0.16
0.00 0.00 0.00 0.00 0.01 0.02 0.02 0.01 0.02 0.09 0.18 0.55 0.70 0.79 1.21 0.78 0.53 0.07 0.01 0.00 0.00 0.00 0.01 0.01 0.01 0.02 0.03 0.04 0.07 0.05 0.08 0.04
0.01 0.01 0.01 0.01 0.00 0.02 0.03 0.05 0.03 0.06 0.18 0.27 0.49 0.41 0.75 0.89 0.43 0.10 0.03 0.01 0.01 0.01 0.01 0.01 0.02 0.02 0.04 0.05 0.07 0.03 0.09 0.12

GFSFLT1_prec_precacc6_102.txt.gz
Total_Precipitation_Accumulation
0.00 0.00 0.00 0.00 0.00 0.00 0.00 0.00 0.00 0.00 0.00 0.01 0.01 0.02 0.02 0.00 0.00 0.00 0.00 0.00 0.00 0.00 0.00 0.00 0.00 0.00 0.01 0.01 0.00 0.00 0.00 0.00
0.00 0.00 0.00 0.00 0.00 0.00 0.00 0.00 0.00 0.00 0.00 0.00 0.00 0.00 0.01 0.01 0.01 0.05 0.01 0.00 0.00 0.00 0.00 0.00 0.00 0.00 0.00 0.01 0.00 0.01 0.01 0.01
0.00 0.00 0.00 0.00 0.00 0.00 0.00 0.00 0.00 0.00 0.00 0.00 0.00 0.00 0.00 0.07 0.05 0.03 0.05 0.01 0.01 0.00 0.00 0.00 0.00 0.00 0.00 0.01 0.01 0.01 0.01 0.01
0.00 0.00 0.00 0.00 0.00 0.00 0.00 0.00 0.00 0.00 0.00 0.00 0.00 0.02 0.05 0.08 0.02 0.01 0.08 0.16 0.15 0.08 0.02 0.01 0.00 0.00 0.00 0.01 0.01 0.01 0.01 0.01
0.00 0.00 0.00 0.00 0.00 0.00 0.00 0.00 0.00 0.00 0.00 0.00 0.00 0.00 0.00 0.00 0.00 0.02 0.09 0.40 0.58 0.49 0.26 0.19 0.12 0.04 0.02 0.01 0.01 0.03 0.03 0.03
0.00 0.00 0.00 0.00 0.00 0.00 0.00 0.00 0.00 0.00 0.00 0.00 0.00 0.00 0.00 0.00 0.00 0.01 0.03 0.19 0.21 0.43 0.46 0.36 0.21 0.09 0.07 0.06 0.02 0.03 0.04 0.04
0.00 0.00 0.00 0.00 0.00 0.00 0.00 0.00 0.00 0.00 0.00 0.00 0.01 0.00 0.00 0.01 0.00 0.01 0.02 0.03 0.05 0.04 0.07 0.11 0.09 0.05 0.05 0.06 0.01 0.02 0.03 0.04
0.00 0.00 0.00 0.00 0.00 0.00 0.00 0.00 0.00 0.00 0.01 0.01 0.01 0.01 0.01 0.01 0.01 0.02 0.05 0.03 0.03 0.01 0.01 0.03 0.02 0.02 0.02 0.02 0.02 0.03 0.03 0.03
0.00 0.00 0.00 0.00 0.00 0.00 0.01 0.01 0.01 0.02 0.04 0.05 0.05 0.05 0.04 0.03 0.05 0.10 0.06 0.02 0.03 0.05 0.02 0.03 0.05 0.07 0.08 0.05 0.03 0.03 0.02 0.03
0.00 0.00 0.01 0.01 0.01 0.01 0.01 0.01 0.01 0.06 0.10 0.10 0.10 0.11 0.12 0.15 0.10 0.19 0.25 0.15 0.11 0.12 0.04 0.09 0.18 0.15 0.12 0.09 0.02 0.02 0.02 0.03
0.00 0.00 0.01 0.02 0.04 0.03 0.03 0.03 0.05 0.08 0.15 0.18 0.16 0.13 0.07 0.06 0.11 0.25 0.31 0.30 0.19 0.16 0.12 0.14 0.16 0.20 0.19 0.13 0.01 0.01 0.02 0.02
0.00 0.00 0.00 0.00 0.01 0.05 0.04 0.04 0.11 0.17 0.24 0.28 0.21 0.19 0.11 0.07 0.09 0.09 0.20 0.17 0.21 0.12 0.10 0.11 0.15 0.17 0.13 0.08 0.03 0.02 0.02 0.03
0.00 0.00 0.00 0.00 0.00 0.03 0.03 0.03 0.14 0.24 0.17 0.27 0.24 0.27 0.28 0.19 0.13 0.14 0.13 0.12 0.08 0.06 0.06 0.09 0.08 0.06 0.03 0.03 0.02 0.01 0.01 0.01
0.00 0.00 0.00 0.00 0.00 0.03 0.06 0.09 0.12 0.16 0.16 0.24 0.15 0.12 0.26 0.31 0.28 0.22 0.18 0.05 0.01 0.01 0.01 0.02 0.04 0.04 0.02 0.01 0.01 0.01 0.00 0.01
0.00 0.00 0.00 0.00 0.00 0.02 0.06 0.17 0.21 0.27 0.14 0.11 0.25 0.26 0.32 0.30 0.30 0.22 0.13 0.07 0.01 0.00 0.00 0.01 0.01 0.01 0.01 0.01 0.01 0.00 0.00 0.01
0.00 0.00 0.00 0.00 0.00 0.00 0.01 0.04 0.15 0.30 0.45 0.27 0.09 0.20 0.27 0.38 0.52 0.38 0.16 0.05 0.02 0.01 0.00 0.00 0.00 0.00 0.00 0.01 0.00 0.00 0.01 0.00
0.00 0.00 0.00 0.00 0.00 0.01 0.01 0.02 0.02 0.09 0.19 0.19 0.16 0.12 0.20 0.32 0.65 1.00 0.62 0.18 0.08 0.03 0.01 0.00 0.00 0.00 0.02 0.01 0.01 0.00 0.02 0.02
0.00 0.00 0.00 0.00 0.01 0.01 0.03 0.07 0.04 0.01 0.04 0.16 0.19 0.27 0.22 0.26 0.65 1.21 1.39 0.96 0.48 0.18 0.03 0.01 0.00 0.00 0.01 0.01 0.01 0.00 0.00 0.02
0.01 0.01 0.01 0.01 0.00 0.00 0.01 0.03 0.04 0.03 0.02 0.06 0.10 0.12 0.18 0.34 0.47 0.77 0.90 0.94 0.79 0.44 0.12 0.03 0.00 0.00 0.01 0.02 0.03 0.00 0.00 0.02

GFSFLT1_prec_precacc6_105.txt.gz
Total_Precipitation_Accumulation
0.00 0.00 0.00 0.00 0.00 0.00 0.00 0.00 0.00 0.00 0.00 0.00 0.00 0.00 0.01 0.00 0.00 0.00 0.00 0.00 0.00 0.00 0.00 0.00 0.00 0.01 0.01 0.01 0.01 0.00 0.00 0.01
0.00 0.00 0.00 0.00 0.00 0.00 0.00 0.00 0.00 0.00 0.00 0.00 0.00 0.00 0.00 0.00 0.00 0.00 0.00 0.00 0.00 0.01 0.00 0.00 0.00 0.00 0.01 0.01 0.00 0.01 0.01 0.01
0.00 0.00 0.00 0.00 0.00 0.00 0.00 0.00 0.00 0.00 0.00 0.00 0.00 0.00 0.00 0.00 0.01 0.00 0.00 0.00 0.01 0.00 0.00 0.00 0.00 0.01 0.01 0.01 0.00 0.00 0.01 0.01
0.00 0.00 0.00 0.00 0.00 0.00 0.00 0.00 0.00 0.00 0.00 0.00 0.00 0.00 0.01 0.01 0.02 0.01 0.01 0.03 0.05 0.02 0.01 0.01 0.01 0.01 0.01 0.02 0.01 0.00 0.00 0.01
0.00 0.00 0.00 0.00 0.00 0.00 0.00 0.00 0.00 0.00 0.00 0.00 0.00 0.00 0.00 0.00 0.00 0.00 0.01 0.04 0.07 0.05 0.07 0.11 0.10 0.05 0.04 0.01 0.01 0.02 0.01 0.01
0.00 0.00 0.00 0.00 0.00 0.00 0.00 0.00 0.00 0.00 0.00 0.00 0.00 0.00 0.00 0.00 0.00 0.01 0.01 0.02 0.02 0.02 0.06 0.19 0.26 0.18 0.14 0.10 0.04 0.02 0.02 0.01
0.00 0.00 0.00 0.00 0.00 0.00 0.00 0.00 0.00 0.00 0.00 0.00 0.00 0.00 0.00 0.01 0.00 0.01 0.05 0.05 0.04 0.03 0.15 0.10 0.12 0.25 0.25 0.27 0.22 0.08 0.02 0.02
0.00 0.00 0.00 0.00 0.00 0.00 0.00 0.00 0.00 0.00 0.00 0.00 0.00 0.00 0.01 0.01 0.01 0.03 0.07 0.07 0.05 0.02 0.05 0.03 0.02 0.04 0.02 0.03 0.08 0.11 0.05 0.02
0.00 0.00 0.00 0.00 0.00 0.00 0.00 0.00 0.00 0.00 0.01 0.00 0.01 0.01 0.03 0.02 0.02 0.06 0.07 0.02 0.02 0.02 0.06 0.07 0.09 0.10 0.09 0.05 0.03 0.04 0.04 0.03
0.00 0.00 0.00 0.00 0.00 0.00 0.00 0.00 0.00 0.02 0.02 0.03 0.03 0.06 0.07 0.10 0.05 0.13 0.11 0.05 0.03 0.03 0.04 0.16 0.23 0.20 0.15 0.13 0.04 0.04 0.03 0.03
0.00 0.00 0.00 0.00 0.02 0.02 0.01 0.00 0.01 0.03 0.05 0.07 0.07 0.11 0.17 0.22 0.15 0.12 0.11 0.10 0.07 0.10 0.12 0.18 0.19 0.30 0.35 0.18 0.08 0.07 0.06 0.03
0.00 0.00 0.00 0.00 0.00 0.03 0.02 0.01 0.02 0.06 0.10 0.14 0.12 0.11 0.17 0.16 0.18 0.18 0.11 0.08 0.11 0.15 0.15 0.14 0.16 0.21 0.36 0.40 0.27 0.20 0.08 0.03
0.00 0.00 0.00 0.00 0.00 0.00 0.01 0.00 0.02 0.06 0.10 0.18 0.22 0.22 0.22 0.25 0.20 0.23 0.16 0.12 0.15 0.15 0.06 0.09 0.08 0.11 0.19 0.57 0.57 0.41 0.13 0.03
0.00 0.00 0.00 0.00 0.00 0.00 0.04 0.06 0.06 0.05 0.08 0.15 0.12 0.13 0.27 0.32 0.35 0.29 0.26 0.12 0.06 0.08 0.04 0.03 0.04 0.05 0.05 0.07 0.31 0.29 0.11 0.05
0.00 0.00 0.00 0.00 0.00 0.00 0.03 0.16 0.19 0.35 0.31 0.19 0.27 0.29 0.30 0.32 0.34 0.38 0.32 0.28 0.08 0.06 0.05 0.02 0.01 0.03 0.04 0.04 0.03 0.05 0.04 0.03
0.00 0.00 0.00 0.00 0.00 0.00 0.00 0.01 0.04 0.16 0.41 0.42 0.27 0.31 0.44 0.54 0.75 0.71 0.37 0.37 0.19 0.08 0.05 0.01 0.01 0.00 0.01 0.01 0.01 0.01 0.01 0.02
0.00 0.00 0.00 0.00 0.00 0.00 0.00 0.01 0.02 0.04 0.06 0.13 0.22 0.15 0.11 0.16 0.31 0.47 0.50 0.42 0.33 0.10 0.05 0.03 0.01 0.00 0.02 0.02 0.02 0.00 0.00 0.01
0.01 0.00 0.00 0.00 0.01 0.00 0.00 0.02 0.03 0.02 0.03 0.13 0.17 0.29 0.27 0.21 0.22 0.38 0.64 0.91 0.72 0.51 0.17 0.05 0.02 0.01 0.02 0.01 0.02 0.00 0.00 0.00
0.03 0.01 0.01 0.01 0.01 0.00 0.00 0.00 0.01 0.03 0.05 0.05 0.07 0.13 0.19 0.19 0.14 0.15 0.30 0.86 1.11 0.93 0.43 0.16 0.05 0.02 0.03 0.02 0.02 0.00 0.01 0.00

GFSFLT1_prec_precacc6_108.txt.gz
Total_Precipitation_Accumulation
0.00 0.00 0.00 0.00 0.00 0.00 0.00 0.00 0.00 0.00 0.00 0.00 0.00 0.00 0.00 0.00 0.00 0.00 0.02 0.05 0.00 0.00 0.00 0.00 0.00 0.00 0.01 0.01 0.00 0.01 0.00 0.01
0.00 0.00 0.00 0.00 0.00 0.00 0.00 0.00 0.00 0.00 0.00 0.00 0.00 0.00 0.00 0.00 0.00 0.00 0.01 0.08 0.03 0.01 0.01 0.01 0.01 0.00 0.00 0.01 0.01 0.01 0.01 0.01
0.00 0.00 0.00 0.00 0.00 0.00 0.00 0.00 0.00 0.00 0.00 0.00 0.00 0.00 0.00 0.00 0.00 0.00 0.00 0.04 0.14 0.07 0.06 0.05 0.06 0.03 0.01 0.01 0.00 0.01 0.01 0.01
0.00 0.00 0.00 0.00 0.00 0.00 0.00 0.00 0.00 0.00 0.00 0.00 0.00 0.00 0.00 0.00 0.00 0.00 0.00 0.02 0.05 0.04 0.04 0.09 0.26 0.44 0.35 0.07 0.01 0.01 0.01 0.01
0.00 0.00 0.00 0.00 0.00 0.00 0.00 0.00 0.00 0.00 0.00 0.00 0.00 0.00 0.00 0.00 0.00 0.00 0.00 0.02 0.07 0.06 0.04 0.07 0.15 0.20 0.20 0.20 0.09 0.02 0.01 0.00
0.00 0.00 0.00 0.00 0.00 0.00 0.00 0.00 0.00 0.00 0.00 0.00 0.00 0.00 0.00 0.00 0.00 0.00 0.01 0.01 0.02 0.03 0.03 0.02 0.16 0.18 0.16 0.14 0.08 0.02 0.02 0.01
0.00 0.00 0.00 0.00 0.00 0.00 0.00 0.00 0.00 0.00 0.00 0.00 0.00 0.00 0.00 0.00 0.00 0.00 0.03 0.06 0.09 0.10 0.20 0.07 0.09 0.25 0.25 0.35 0.42 0.22 0.11 0.06
0.00 0.00 0.00 0.00 0.00 0.00 0.00 0.00 0.00 0.00 0.00 0.00 0.00 0.00 0.00 0.00 0.00 0.02 0.09 0.22 0.28 0.28 0.19 0.08 0.04 0.04 0.06 0.08 0.22 0.32 0.24 0.10
0.00 0.00 0.00 0.00 0.00 0.00 0.00 0.00 0.00 0.00 0.00 0.00 0.00 0.00 0.01 0.00 0.01 0.05 0.07 0.07 0.08 0.24 0.29 0.15 0.09 0.07 0.13 0.24 0.26 0.19 0.13 0.25
0.00 0.00 0.00 0.00 0.00 0.00 0.00 0.00 0.00 0.00 0.00 0.00 0.01 0.03 0.05 0.05 0.05 0.09 0.07 0.09 0.08 0.09 0.07 0.14 0.12 0.15 0.12 0.14 0.12 0.09 0.05 0.06
0.00 0.00 0.00 0.00 0.00 0.00 0.00 0.00 0.00 0.00 0.00 0.01 0.02 0.06 0.17 0.23 0.18 0.14 0.07 0.06 0.11 0.11 0.06 0.06 0.06 0.15 0.19 0.09 0.09 0.09 0.10 0.13
0.00 0.00 0.00 0.00 0.00 0.00 0.00 0.00 0.00 0.00 0.00 0.02 0.04 0.05 0.15 0.17 0.19 0.26 0.24 0.22 0.20 0.21 0.19 0.11 0.05 0.08 0.32 0.38 0.26 0.31 0.28 0.20
0.00 0.00 0.00 0.00 0.00 0.00 0.00 0.00 0.00 0.00 0.00 0.00 0.02 0.06 0.08 0.12 0.21 0.29 0.26 0.22 0.36 0.43 0.25 0.10 0.10 0.10 0.24 0.60 0.58 0.44 0.31 0.35
0.00 0.00 0.00 0.00 0.00 0.00 0.00 0.00 0.01 0.01 0.01 0.01 0.02 0.05 0.09 0.11 0.13 0.19 0.22 0.22 0.26 0.45 0.47 0.39 0.27 0.11 0.06 0.10 0.34 0.42 0.19 0.12
0.00 0.00 0.00 0.00 0.00 0.00 0.00 0.00 0.03 0.14 0.22 0.15 0.09 0.12 0.13 0.18 0.19 0.27 0.29 0.29 0.15 0.18 0.31 0.34 0.34 0.19 0.08 0.04 0.03 0.13 0.30 0.11
0.00 0.00 0.00 0.00 0.00 0.00 0.00 0.00 0.01 0.02 0.10 0.25 0.25 0.23 0.33 0.49 0.75 0.83 0.52 0.50 0.36 0.27 0.19 0.17 0.24 0.15 0.09 0.06 0.02 0.05 0.12 0.20
0.00 0.00 0.00 0.00 0.00 0.00 0.00 0.00 0.01 0.02 0.03 0.04 0.10 0.09 0.11 0.19 0.32 0.53 0.51 0.55 0.67 0.39 0.45 0.23 0.15 0.09 0.10 0.10 0.07 0.05 0.04 0.07
0.00 0.00 0.00 0.00 0.00 0.00 0.00 0.00 0.00 0.02 0.04 0.03 0.04 0.14 0.19 0.20 0.16 0.16 0.28 0.35 0.47 0.73 0.49 0.31 0.16 0.11 0.16 0.14 0.06 0.03 0.03 0.02
0.02 0.01 0.02 0.02 0.02 0.01 0.00 0.00 0.00 0.02 0.04 0.07 0.06 0.11 0.18 0.22 0.24 0.16 0.11 0.23 0.41 0.59 0.52 0.43 0.28 0.14 0.14 0.11 0.12 0.03 0.03 0.03

GFSFLT1_prec_precacc6_111.txt.gz
Total_Precipitation_Accumulation
0.00 0.00 0.00 0.00 0.00 0.00 0.00 0.00 0.00 0.00 0.00 0.00 0.00 0.00 0.00 0.00 0.00 0.00 0.04 0.13 0.03 0.06 0.03 0.01 0.01 0.01 0.00 0.01 0.00 0.00 0.00 0.01
0.00 0.00 0.00 0.00 0.00 0.00 0.00 0.00 0.00 0.00 0.00 0.00 0.00 0.00 0.00 0.00 0.00 0.00 0.01 0.18 0.12 0.00 0.01 0.02 0.02 0.02 0.00 0.00 0.02 0.01 0.03 0.01
0.00 0.00 0.00 0.00 0.00 0.00 0.00 0.00 0.00 0.00 0.00 0.00 0.00 0.00 0.00 0.00 0.00 0.00 0.00 0.04 0.16 0.09 0.06 0.05 0.09 0.14 0.11 0.05 0.14 0.10 0.06 0.06
0.00 0.00 0.00 0.00 0.00 0.00 0.00 0.00 0.00 0.00 0.00 0.00 0.00 0.00 0.00 0.00 0.00 0.00 0.00 0.01 0.04 0.07 0.08 0.13 0.32 0.70 0.84 0.83 0.88 0.75 0.46 0.23
0.00 0.00 0.00 0.00 0.00 0.00 0.00 0.00 0.00 0.00 0.00 0.00 0.00 0.00 0.00 0.00 0.00 0.00 0.00 0.00 0.05 0.07 0.08 0.17 0.21 0.34 0.40 0.56 0.64 0.67 0.70 0.31
0.00 0.00 0.00 0.00 0.00 0.00 0.00 0.00 0.00 0.00 0.00 0.00 0.00 0.00 0.00 0.00 0.00 0.00 0.00 0.00 0.03 0.08 0.11 0.12 0.14 0.20 0.16 0.16 0.12 0.07 0.09 0.20
0.00 0.00 0.00 0.00 0.00 0.00 0.00 0.00 0.00 0.00 0.00 0.00 0.00 0.00 0.00 0.00 0.00 0.00 0.00 0.03 0.07 0.14 0.24 0.21 0.21 0.21 0.15 0.19 0.28 0.26 0.18 0.09
0.00 0.00 0.00 0.00 0.00 0.00 0.00 0.00 0.00 0.00 0.00 0.00 0.00 0.00 0.00 0.00 0.00 0.00 0.03 0.17 0.24 0.28 0.37 0.34 0.26 0.30 0.30 0.21 0.29 0.52 0.62 0.30
0.00 0.00 0.00 0.00 0.00 0.00 0.00 0.00 0.00 0.00 0.00 0.00 0.00 0.00 0.01 0.00 0.00 0.00 0.01 0.06 0.07 0.24 0.56 0.51 0.37 0.29 0.34 0.46 0.48 0.45 0.58 0.73
0.00 0.00 0.00 0.00 0.00 0.00 0.00 0.00 0.00 0.00 0.00 0.00 0.00 0.01 0.03 0.03 0.03 0.02 0.01 0.05 0.06 0.07 0.10 0.20 0.22 0.23 0.19 0.29 0.32 0.25 0.21 0.40
0.00 0.00 0.00 0.00 0.00 0.00 0.00 0.00 0.00 0.00 0.00 0.00 0.00 0.01 0.03 0.04 0.07 0.09 0.06 0.04 0.08 0.09 0.06 0.19 0.24 0.24 0.16 0.12 0.09 0.09 0.12 0.26
0.00 0.00 0.00 0.00 0.00 0.00 0.00 0.00 0.00 0.00 0.00 0.00 0.00 0.01 0.04 0.05 0.07 0.15 0.19 0.22 0.19 0.20 0.21 0.32 0.21 0.24 0.23 0.16 0.05 0.14 0.27 0.37
0.00 0.00 0.00 0.00 0.00 0.00 0.00 0.00 0.00 0.00 0.00 0.00 0.00 0.00 0.01 0.02 0.11 0.17 0.20 0.20 0.29 0.41 0.39 0.41 0.34 0.23 0.20 0.18 0.10 0.06 0.27 0.56
0.00 0.00 0.00 0.00 0.00 0.00 0.00 0.00 0.00 0.00 0.00 0.00 0.00 0.00 0.00 0.00 0.01 0.06 0.10 0.14 0.22 0.44 0.54 0.60 0.64 0.41 0.25 0.16 0.11 0.20 0.20 0.34
0.00 0.00 0.00 0.00 0.00 0.00 0.00 0.00 0.00 0.00 0.00 0.00 0.01 0.01 0.01 0.01 0.02 0.04 0.05 0.06 0.08 0.18 0.40 0.53 0.79 0.80 0.62 0.23 0.15 0.18 0.34 0.23
0.00 0.00 0.00 0.00 0.00 0.00 0.00 0.00 0.00 0.00 0.00 0.00 0.02 0.07 0.07 0.10 0.12 0.25 0.26 0.17 0.18 0.20 0.20 0.26 0.55 0.87 0.42 0.26 0.12 0.11 0.18 0.24
0.00 0.00 0.00 0.00 0.00 0.00 0.00 0.00 0.00 0.00 0.00 0.01 0.01 0.01 0.02 0.06 0.09 0.17 0.26 0.28 0.42 0.41 0.49 0.33 0.25 0.45 0.52 0.28 0.31 0.15 0.16 0.08
0.00 0.00 0.00 0.01 0.01 0.01 0.01 0.01 0.00 0.00 0.01 0.02 0.02 0.01 0.02 0.08 0.10 0.07 0.11 0.21 0.21 0.42 0.43 0.43 0.35 0.31 0.59 0.37 0.36 0.17 0.11 0.07
0.01 0.01 0.02 0.02 0.03 0.03 0.02 0.02 0.00 0.01 0.02 0.03 0.04 0.03 0.05 0.10 0.14 0.13 0.10 0.08 0.09 0.13 0.30 0.38 0.33 0.33 0.32 0.58 0.45 0.21 0.09 0.08

GFSFLT1_prec_precacc6_114.txt.gz
Total_Precipitation_Accumulation
0.00 0.00 0.00 0.00 0.00 0.00 0.00 0.00 0.00 0.00 0.00 0.00 0.00 0.00 0.00 0.00 0.00 0.01 0.03 0.11 0.07 0.13 0.13 0.09 0.29 0.34 0.21 0.13 0.04 0.01 0.00 0.00
0.00 0.00 0.00 0.00 0.00 0.00 0.00 0.00 0.00 0.00 0.00 0.00 0.00 0.00 0.00 0.00 0.00 0.00 0.00 0.10 0.09 0.00 0.02 0.04 0.12 0.15 0.09 0.22 0.33 0.22 0.12 0.06
0.00 0.00 0.00 0.00 0.00 0.00 0.00 0.00 0.00 0.00 0.00 0.00 0.00 0.00 0.00 0.00 0.00 0.00 0.00 0.00 0.03 0.02 0.01 0.02 0.05 0.18 0.32 0.29 0.54 0.59 0.38 0.30
0.00 0.00 0.00 0.00 0.00 0.00 0.00 0.00 0.00 0.00 0.00 0.00 0.00 0.00 0.00 0.00 0.00 0.00 0.00 0.00 0.00 0.03 0.05 0.06 0.09 0.32 0.57 0.94 1.10 1.11 0.89 0.76
0.00 0.00 0.00 0.00 0.00 0.00 0.00 0.00 0.00 0.00 0.00 0.00 0.00 0.00 0.00 0.00 0.00 0.00 0.00 0.00 0.01 0.02 0.04 0.11 0.08 0.19 0.27 0.42 0.68 0.86 1.03 1.14
0.00 0.00 0.00 0.00 0.00 0.00 0.00 0.00 0.00 0.00 0.00 0.00 0.00 0.00 0.00 0.00 0.00 0.00 0.00 0.00 0.02 0.06 0.10 0.11 0.10 0.14 0.11 0.09 0.11 0.12 0.10 0.22
0.00 0.00 0.00 0.00 0.00 0.00 0.00 0.00 0.00 0.00 0.00 0.00 0.00 0.00 0.00 0.00 0.00 0.00 0.00 0.00 0.00 0.06 0.16 0.17 0.19 0.17 0.14 0.11 0.12 0.16 0.12 0.05
0.00 0.00 0.00 0.00 0.00 0.00 0.00 0.00 0.00 0.00 0.00 0.00 0.00 0.00 0.00 0.00 0.00 0.00 0.00 0.00 0.00 0.02 0.22 0.27 0.23 0.29 0.27 0.25 0.26 0.41 0.54 0.30
0.00 0.00 0.00 0.00 0.00 0.00 0.00 0.00 0.00 0.00 0.00 0.00 0.00 0.00 0.00 0.00 0.00 0.00 0.00 0.00 0.00 0.02 0.32 0.42 0.34 0.26 0.22 0.28 0.31 0.43 0.68 0.69
0.01 0.01 0.00 0.00 0.00 0.00 0.00 0.00 0.00 0.00 0.00 0.00 0.00 0.00 0.00 0.00 0.01 0.01 0.01 0.01 0.00 0.01 0.07 0.16 0.18 0.15 0.12 0.20 0.28 0.26 0.30 0.48
0.03 0.01 0.00 0.00 0.00 0.00 0.00 0.00 0.00 0.00 0.00 0.00 0.00 0.00 0.00 0.00 0.01 0.03 0.02 0.01 0.01 0.03 0.04 0.18 0.22 0.20 0.14 0.09 0.13 0.18 0.18 0.33
0.01 0.01 0.00 0.00 0.00 0.00 0.00 0.00 0.00 0.00 0.00 0.00 0.00 0.00 0.00 0.00 0.01 0.02 0.03 0.06 0.06 0.07 0.09 0.26 0.18 0.24 0.19 0.16 0.14 0.19 0.23 0.28
0.00 0.00 0.00 0.00 0.00 0.00 0.00 0.00 0.00 0.00 0.00 0.00 0.00 0.00 0.00 0.00 0.00 0.00 0.01 0.02 0.03 0.08 0.15 0.32 0.29 0.27 0.24 0.21 0.19 0.16 0.19 0.29
0.00 0.00 0.00 0.00 0.00 0.00 0.00 0.00 0.00 0.00 0.00 0.00 0.00 0.00 0.00 0.00 0.00 0.00 0.00 0.00 0.01 0.07 0.12 0.22 0.39 0.37 0.32 0.23 0.23 0.30 0.29 0.34
0.00 0.00 0.00 0.00 0.00 0.00 0.00 0.00 0.00 0.00 0.00 0.00 0.00 0.00 0.00 0.00 0.00 0.00 0.00 0.00 0.01 0.06 0.14 0.20 0.46 0.64 0.70 0.56 0.52 0.32 0.28 0.32
0.00 0.00 0.00 0.00 0.00 0.00 0.00 0.00 0.00 0.00 0.00 0.00 0.00 0.00 0.00 0.00 0.00 0.00 0.00 0.00 0.00 0.01 0.05 0.11 0.34 0.80 0.49 0.39 0.31 0.48 0.43 0.35
0.00 0.00 0.00 0.00 0.00 0.00 0.00 0.00 0.00 0.00 0.00 0.01 0.00 0.00 0.00 0.00 0.00 0.00 0.00 0.01 0.03 0.10 0.09 0.13 0.11 0.39 0.60 0.37 0.37 0.31 0.47 0.40
0.00 0.01 0.01 0.01 0.02 0.02 0.01 0.01 0.00 0.00 0.01 0.01 0.01 0.01 0.01 0.01 0.01 0.02 0.02 0.02 0.01 0.05 0.10 0.17 0.21 0.21 0.49 0.35 0.47 0.63 0.50 0.31
0.01 0.02 0.03 0.03 0.03 0.03 0.02 0.02 0.01 0.01 0.02 0.01 0.02 0.03 0.04 0.04 0.03 0.04 0.06 0.06 0.06 0.08 0.13 0.12 0.14 0.26 0.26 0.55 0.56 0.63 0.57 0.37

GFSFLT1_prec_precacc6_117.txt.gz
Total_Precipitation_Accumulation
0.00 0.00 0.00 0.00 0.00 0.00 0.00 0.00 0.00 0.00 0.00 0.00 0.00 0.00 0.00 0.00 0.00 0.00 0.01 0.04 0.06 0.11 0.18 0.31 0.58 0.65 0.58 0.51 0.30 0.19 0.15 0.13
0.00 0.00 0.00 0.00 0.00 0.00 0.00 0.00 0.00 0.00 0.00 0.00 0.00 0.00 0.00 0.00 0.00 0.00 0.00 0.00 0.00 0.01 0.01 0.06 0.20 0.23 0.21 0.39 0.60 0.53 0.46 0.43
0.00 0.00 0.00 0.00 0.00 0.00 0.00 0.00 0.00 0.00 0.00 0.00 0.00 0.00 0.00 0.00 0.00 0.00 0.00 0.00 0.00 0.00 0.00 0.01 0.02 0.08 0.23 0.27 0.48 0.59 0.46 0.51
0.00 0.00 0.00 0.00 0.00 0.00 0.00 0.00 0.00 0.00 0.00 0.00 0.00 0.00 0.00 0.00 0.00 0.00 0.00 0.00 0.00 0.00 0.00 0.01 0.02 0.05 0.07 0.18 0.25 0.44 0.48 0.61
0.00 0.00 0.00 0.00 0.00 0.00 0.00 0.00 0.00 0.00 0.00 0.00 0.00 0.00 0.00 0.00 0.00 0.00 0.00 0.00 0.00 0.00 0.00 0.00 0.01 0.03 0.05 0.07 0.13 0.23 0.40 0.85
0.05 0.02 0.01 0.01 0.01 0.00 0.00 0.00 0.00 0.00 0.00 0.00 0.00 0.00 0.00 0.00 0.00 0.00 0.00 0.00 0.00 0.00 0.00 0.00 0.00 0.02 0.03 0.04 0.05 0.07 0.05 0.04
0.05 0.07 0.05 0.03 0.01 0.00 0.00 0.00 0.00 0.00 0.00 0.00 0.00 0.00 0.00 0.00 0.00 0.00 0.00 0.00 0.00 0.00 0.00 0.00 0.00 0.00 0.03 0.06 0.06 0.06 0.05 0.04
0.05 0.01 0.01 0.02 0.02 0.00 0.00 0.00 0.00 0.00 0.00 0.00 0.00 0.00 0.00 0.00 0.00 0.00 0.00 0.00 0.00 0.00 0.00 0.00 0.00 0.00 0.02 0.09 0.13 0.14 0.14 0.12
0.18 0.05 0.01 0.00 0.00 0.00 0.00 0.00 0.00 0.00 0.00 0.00 0.00 0.00 0.00 0.00 0.00 0.00 0.00 0.00 0.00 0.00 0.00 0.00 0.00 0.00 0.01 0.04 0.09 0.16 0.24 0.24
0.32 0.17 0.04 0.00 0.00 0.00 0.00 0.00 0.00 0.00 0.00 0.00 0.00 0.00 0.00 0.00 0.00 0.00 0.00 0.00 0.00 0.00 0.00 0.00 0.00 0.00 0.00 0.02 0.06 0.09 0.15 0.17
0.27 0.17 0.08 0.03 0.00 0.00 0.00 0.00 0.00 0.00 0.00 0.00 0.00 0.00 0.00 0.00 0.00 0.00 0.00 0.00 0.00 0.01 0.00 0.00 0.00 0.00 0.01 0.01 0.05 0.13 0.14 0.20
0.11 0.10 0.07 0.04 0.03 0.02 0.01 0.00 0.00 0.00 0.00 0.00 0.00 0.00 0.00 0.00 0.00 0.00 0.00 0.01 0.01 0.01 0.01 0.01 0.01 0.03 0.05 0.07 0.10 0.17 0.17 0.13
0.03 0.02 0.01 0.00 0.00 0.00 0.00 0.00 0.00 0.00 0.00 0.00 0.00 0.00 0.00 0.00 0.00 0.00 0.00 0.00 0.00 0.00 0.00 0.00 0.04 0.08 0.12 0.09 0.13 0.14 0.12 0.08
0.00 0.00 0.00 0.00 0.00 0.00 0.00 0.00 0.00 0.00 0.00 0.00 0.00 0.00 0.00 0.00 0.00 0.00 0.00 0.00 0.00 0.00 0.00 0.00 0.01 0.05 0.09 0.11 0.17 0.28 0.22 0.10
0.00 0.00 0.00 0.00 0.00 0.00 0.00 0.00 0.00 0.00 0.00 0.00 0.00 0.00 0.00 0.00 0.00 0.00 0.00 0.00 0.00 0.00 0.00 0.00 0.00 0.01 0.12 0.34 0.39 0.25 0.25 0.23
0.00 0.00 0.00 0.00 0.00 0.00 0.00 0.00 0.00 0.00 0.00 0.00 0.00 0.00 0.00 0.00 0.00 0.00 0.00 0.00 0.00 0.00 0.00 0.01 0.03 0.07 0.16 0.19 0.21 0.42 0.37 0.33
0.00 0.00 0.00 0.00 0.01 0.01 0.00 0.00 0.00 0.00 0.00 0.00 0.00 0.00 0.00 0.00 0.00 0.00 0.00 0.00 0.00 0.00 0.00 0.00 0.01 0.04 0.18 0.19 0.15 0.23 0.39 0.55
0.00 0.01 0.01 0.01 0.02 0.02 0.01 0.02 0.01 0.00 0.00 0.00 0.00 0.01 0.01 0.01 0.01 0.01 0.01 0.01 0.00 0.01 0.01 0.02 0.02 0.04 0.09 0.14 0.24 0.55 0.47 0.36
0.01 0.01 0.02 0.02 0.02 0.02 0.02 0.02 0.02 0.00 0.01 0.01 0.01 0.02 0.02 0.03 0.02 0.02 0.03 0.03 0.02 0.03 0.05 0.06 0.05 0.10 0.12 0.14 0.29 0.52 0.58 0.38